K5IUC Weather Reports


Display with metric or nautical units.
time (UTC)temp
F
wind
direction
speed
MPH
gust
MPH
rain 1hr
in
rain 24hr
in
rain mn
in
humidity
%
barometer
mb
20260509173617 85 338 3.0 5.0 0.00 0.01 0.00 52 1009.1
20260509172618 84 315 5.0 8.0 0.00 0.01 0.00 53 1009.1
20260509171617 84 315 4.0 6.0 0.00 0.01 0.00 54 1009.1
20260509170617 84 338 4.0 5.0 0.00 0.01 0.00 55 1009.1
20260509165617 84 0 6.0 9.0 0.00 0.01 0.00 55 1009.2
20260509164617 83 315 5.0 7.0 0.00 0.01 0.00 57 1009.1
20260509163617 83 315 4.0 6.0 0.00 0.01 0.00 57 1009.2
20260509162617 83 315 7.0 11.0 0.00 0.01 0.00 58 1009.2
20260509161617 83 0 6.0 10.0 0.00 0.01 0.00 58 1009.3
20260509160618 82 338 1.0 3.0 0.00 0.01 0.00 59 1009.1
20260509155617 81 338 4.0 6.0 0.00 0.01 0.00 59 1009.3
20260509154617 81 23 6.0 7.0 0.00 0.01 0.00 60 1009.0
20260509153617 81 23 8.0 11.0 0.00 0.01 0.00 58 1008.9
20260509152617 81 338 6.0 8.0 0.00 0.01 0.00 59 1008.9
20260509151617 80 23 6.0 9.0 0.00 0.01 0.00 59 1008.8
20260509150617 79 23 5.0 9.0 0.00 0.01 0.00 63 1008.8
20260509145617 78 315 3.0 6.0 0.00 0.01 0.00 66 1008.8
20260509144637 78 315 6.0 9.0 0.00 0.01 0.00 68 1009.0
20260509143637 77 315 4.0 5.0 0.00 0.01 0.00 71 1008.9
20260509142617 77 0 3.0 5.0 0.00 0.01 0.00 71 1009.0
20260509141658 76 338 3.0 5.0 0.00 0.01 0.00 73 1008.9
20260509140617 75 338 5.0 8.0 0.00 0.01 0.00 74 1008.9
20260509135617 75 338 3.0 5.0 0.00 0.01 0.00 77 1008.7
20260509134617 74 315 5.0 7.0 0.00 0.01 0.00 78 1008.5
20260509133617 73 338 4.0 5.0 0.00 0.01 0.00 79 1008.5
20260509132617 72 338 4.0 5.0 0.00 0.01 0.00 80 1008.3
20260509131617 72 315 3.0 4.0 0.00 0.01 0.00 81 1008.0
20260509130637 71 315 5.0 7.0 0.00 0.01 0.00 80 1008.0
20260509125617 71 338 6.0 10.0 0.00 0.01 0.00 81 1008.1
20260509124617 70 338 4.0 6.0 0.00 0.01 0.00 82 1008.0
20260509123617 69 338 3.0 4.0 0.00 0.01 0.00 84 1007.8
20260509122617 69 270 1.0 2.0 0.00 0.01 0.00 85 1007.8
20260509121617 68 270 1.0 1.0 0.00 0.01 0.00 86 1007.8
20260509120617 68 0.0 1.0 0.00 0.01 0.00 87 1007.7
20260509115617 68 270 1.0 2.0 0.00 0.01 0.00 88 1007.6
20260509114617 69 0.0 0.0 0.00 0.01 0.00 87 1007.7
20260509113617 69 0.0 0.0 0.00 0.01 0.00 87 1007.5
20260509112617 70 0.0 0.0 0.00 0.01 0.00 87 1007.1
20260509111617 70 270 1.0 2.0 0.00 0.01 0.00 86 1007.1
20260509110616 71 0.0 1.0 0.00 0.01 0.00 86 1007.1
20260509105617 71 0.0 0.0 0.00 0.01 0.00 84 1006.8
20260509104617 72 0.0 0.0 0.00 0.01 0.00 83 1006.8
20260509103617 72 0.0 0.0 0.00 0.01 0.00 83 1006.8
20260509102617 72 315 1.0 2.0 0.00 0.01 0.00 83 1007.1
20260509101616 72 338 3.0 6.0 0.00 0.01 0.00 83 1007.0
20260509100617 72 338 4.0 9.0 0.00 0.01 0.00 85 1006.7
20260509095617 72 338 6.0 11.0 0.00 0.01 0.00 87 1006.5
20260509094617 71 338 8.0 10.0 0.00 0.01 0.00 89 1005.8
20260509093617 71 203 6.0 10.0 0.00 0.01 0.00 89 1004.1
20260509092616 71 225 5.0 7.0 0.00 0.01 0.00 89 1003.9
20260509091636 71 203 6.0 9.0 0.00 0.01 0.00 89 1003.9
20260509090617 71 203 8.0 14.0 0.00 0.01 0.00 89 1004.0
20260509085616 70 203 7.0 9.0 0.00 0.01 0.00 90 1004.2
20260509084637 70 203 5.0 7.0 0.00 0.01 0.00 90 1004.5
20260509083616 70 225 7.0 9.0 0.00 0.01 0.00 90 1004.8
20260509082636 70 180 8.0 11.0 0.00 0.01 0.00 90 1004.9
20260509081617 70 203 5.0 11.0 0.00 0.01 0.00 90 1005.6
20260509080637 70 180 5.0 7.0 0.00 0.01 0.00 90 1006.1
20260509075616 70 158 5.0 7.0 0.00 0.01 0.00 89 1006.5
20260509074617 71 225 4.0 6.0 0.00 0.01 0.00 88 1007.1
20260509073616 71 248 1.0 2.0 0.00 0.01 0.00 88 1007.7
20260509072616 71 248 4.0 5.0 0.00 0.01 0.00 88 1008.3
20260509071617 71 248 4.0 6.0 0.00 0.01 0.00 88 1008.6
20260509070617 71 293 4.0 6.0 0.00 0.01 0.00 89 1009.2
20260509065616 71 270 2.0 3.0 0.00 0.01 0.00 90 1009.3
20260509064616 70 338 1.0 2.0 0.00 0.01 0.00 90 1009.3
20260509063616 70 23 1.0 2.0 0.00 0.01 0.00 90 1009.1
20260509062616 70 0.0 0.0 0.00 0.01 0.00 90 1008.9
20260509061616 71 0.0 0.0 0.00 0.01 0.00 90 1009.3
20260509060616 71 0.0 0.0 0.00 0.01 0.00 89 1009.0
20260509055616 71 23 1.0 2.0 0.00 0.01 0.00 89 1009.0
20260509054637 71 23 2.0 3.0 0.00 0.01 0.00 89 1009.0
20260509053616 70 23 2.0 5.0 0.00 0.01 0.00 90 1008.9
20260509052616 70 0.0 0.0 0.00 0.01 0.00 90 1008.1
20260509051617 71 0.0 1.0 0.00 0.01 0.00 89 1008.1
20260509050616 71 0.0 0.0 0.00 0.01 0.00 89 1008.1
20260509045617 71 0.0 2.0 0.00 0.01 0.01 88 1007.8
20260509044617 71 0.0 1.0 0.00 0.01 0.01 88 1007.9
20260509043617 71 0.0 1.0 0.00 0.01 0.01 87 1007.9
20260509042637 72 0.0 1.0 0.00 0.01 0.01 87 1008.1
20260509041657 72 0.0 1.0 0.00 0.01 0.01 87 1008.2
20260509040617 72 0.0 0.0 0.00 0.01 0.01 87 1008.3
20260509035637 72 0.0 0.0 0.00 0.01 0.01 87 1008.0
20260509034617 72 158 2.0 4.0 0.00 0.01 0.01 86 1007.5
20260509033617 72 180 3.0 6.0 0.00 0.01 0.01 86 1007.3
20260509032617 73 158 4.0 5.0 0.00 0.01 0.01 85 1007.4
20260509031616 73 158 3.0 4.0 0.00 0.01 0.01 85 1007.1
20260509030616 73 158 3.0 4.0 0.00 0.01 0.01 85 1007.1
20260509025617 73 158 2.0 4.0 0.00 0.01 0.01 84 1007.0
20260509024616 73 158 2.0 3.0 0.00 0.01 0.01 84 1006.6
20260509023616 74 180 5.0 6.0 0.00 0.01 0.01 84 1006.4
20260509022617 74 158 2.0 4.0 0.00 0.01 0.01 83 1006.6
20260509021617 74 158 2.0 3.0 0.00 0.01 0.01 83 1006.7
20260509020637 74 135 1.0 2.0 0.00 0.01 0.01 82 1006.7
20260509015636 74 0.0 0.0 0.00 0.01 0.01 82 1006.7
20260509014617 74 113 1.0 2.0 0.00 0.01 0.01 82 1006.8
20260509013637 74 113 1.0 2.0 0.00 0.01 0.01 82 1006.6
20260509012616 74 113 1.0 1.0 0.00 0.01 0.01 81 1006.7
20260509011617 74 113 1.0 3.0 0.00 0.01 0.01 81 1006.3
20260509010617 74 158 1.0 2.0 0.00 0.01 0.01 81 1006.4
20260509005617 74 158 2.0 3.0 0.00 0.01 0.01 81 1006.3
20260509004617 74 225 2.0 2.0 0.00 0.01 0.01 80 1006.1
20260509003616 74 225 1.0 2.0 0.00 0.01 0.01 80 1006.1
20260509002616 74 0.0 1.0 0.00 0.01 0.01 80 1006.1
20260509001616 75 203 2.0 3.0 0.00 0.01 0.01 79 1006.3
20260509000616 75 203 1.0 3.0 0.00 0.01 0.01 79 1006.4
20260508235616 75 158 2.0 4.0 0.00 0.01 0.01 79 1006.4
20260508234616 75 180 1.0 2.0 0.00 0.01 0.01 78 1006.5
20260508233616 75 135 3.0 5.0 0.00 0.01 0.01 78 1006.4
20260508232637 75 225 3.0 5.0 0.00 0.01 0.01 78 1006.6
20260508231616 75 158 2.0 2.0 0.00 0.01 0.01 77 1006.6
20260508230616 75 158 4.0 6.0 0.00 0.01 0.01 77 1006.5
20260508225616 75 225 2.0 4.0 0.00 0.01 0.01 77 1006.7
20260508224616 75 180 4.0 6.0 0.00 0.01 0.01 76 1006.6
20260508223616 75 135 6.0 8.0 0.00 0.01 0.01 77 1006.5
20260508222656 74 203 4.0 6.0 0.00 0.01 0.01 77 1006.8
20260508221617 74 135 5.0 7.0 0.00 0.01 0.01 77 1006.9
20260508220616 73 180 4.0 7.0 0.00 0.01 0.01 79 1006.8
20260508215616 73 158 4.0 6.0 0.00 0.01 0.01 79 1007.1
20260508214616 72 203 4.0 5.0 0.00 0.01 0.01 80 1007.0
20260508213636 71 158 4.0 6.0 0.00 0.01 0.01 81 1007.1
20260508212616 70 158 3.0 4.0 0.00 0.01 0.01 86 1007.1
20260508211616 68 180 3.0 6.0 0.00 0.01 0.01 95 1007.4
20260508210636 67 180 3.0 4.0 0.00 0.01 0.01 95 1007.5
20260508205616 66 225 2.0 4.0 0.01 0.01 0.01 95 1007.7
20260508204616 66 225 3.0 4.0 0.01 0.01 0.01 95 1007.9
20260508203616 66 0 3.0 5.0 0.01 0.01 0.01 95 1007.8
20260508202616 66 23 3.0 5.0 0.01 0.01 0.01 94 1007.5
20260508201616 66 158 4.0 6.0 0.01 0.01 0.01 92 1007.4
20260508200616 70 158 5.0 6.0 0.01 0.01 0.01 85 1008.4
20260508195616 72 203 4.0 6.0 0.00 0.00 0.00 71 1009.1
20260508194616 72 225 4.0 8.0 0.00 0.00 0.00 71 1009.5
20260508193616 73 158 5.0 7.0 0.00 0.00 0.00 69 1009.2
20260508192616 73 225 5.0 7.0 0.00 0.00 0.00 68 1009.3
20260508191616 74 180 6.0 8.0 0.00 0.00 0.00 67 1009.3
20260508190616 73 225 5.0 9.0 0.00 0.00 0.00 68 1009.5
20260508185616 73 225 8.0 11.0 0.00 0.00 0.00 67 1009.7
20260508184636 74 225 7.0 10.0 0.00 0.00 0.00 67 1009.6
20260508183616 74 225 7.0 11.0 0.00 0.00 0.00 67 1009.8
20260508182615 74 158 5.0 8.0 0.00 0.00 0.00 66 1010.0
20260508181616 74 203 5.0 7.0 0.00 0.00 0.00 66 1010.2
20260508180616 75 225 6.0 8.0 0.00 0.00 0.00 65 1010.3
20260508175616 74 225 5.0 7.0 0.00 0.00 0.00 65 1010.2
20260508174616 73 203 4.0 5.0 0.00 0.00 0.00 67 1010.3